一网星座-0306星 (ONEWEB-0306 )

导读 | 星芒AI

ONEWE-0306 是 OneWeb 卫星通信星座计划中的一颗低轨通信卫星,旨在为全球提供高速互联网服务。该卫星由空中客车防务与航天公司制造,采用标准化设计以提高部署效率。它运行在约 1200 公里的近地轨道,支持高带宽数据传输,适用于偏远地区和航空、航海等移动通信场景。ONEWE-0306 的发射进一步完善了 OneWeb 的卫星网络,增强其在全球卫星互联网市场的竞争力。

基本信息
目录编号:
49188
目录名称:
ONEWEB-0306
国际标识:
2021-083C
轨道中心:
EARTH
卫星名称:
一网星座-0306星
卫星全名:
一网星座-0306星 (ONEWEB-0306 )
卫星状态:
在轨 (已飞行1507 天)
发射日期:
2021-09-14 UTC
国别 :
英国 (GB)
星等 :
--
轨道信息
数据来源 国际轨道数据
星历时间: 2025-10-30T06:23:38+0800
7小时前
查看轨道信息
半长轴: 7567.878km
偏心率: 0.0002022
轨道倾角: 87.923°
近地点辐角 103.235°
升交点赤经 21.170°
平近点角 256.901°
近地点: 1188.212km
远地点: 1191.274km
周期: 109.200分钟
每日圈数: 13.186866
详细信息
平衡模式:
三轴稳定
覆盖范围:
全球
运营商:
一网卫星公司
运营商所在国:
英国
制造商(研发单位):
一网卫星公司
制造商所在国:
英国
使用方式:
暂无
卫星简介
OneWeb卫星网络由648颗重约125公斤的微型卫星组成,运行在1200公里的轨道上。 每颗卫星都能够提供至少每秒8千兆位的吞吐量,以使用其高吞吐量的Ku频段有效载荷为家庭和移动平台提供互联网接入。该卫星仍在工作。
2D轨道图
3D轨道图
轨道高度分析图
轨道倾角分析图
轨道综合分析图
查看轨道综合分析图